Location: Taipo
(41.0000°S, 175.9500°E)
Time: 10:36:34
(UTC+00:00)

CZ-2D R/B - Pass Details

Date: 18 April 2024
Orbit: 483 x 494 km, 97.4° (Epoch: 24 May)

Event Time Altitude Azimuth Distance (km) Brightness Sun altitude
Rises 17:45:18 0° 353° (N) 2,586 6.7 -13.0°
Reaches altitude 10° 17:47:31 10° 343° (NNW) 1,709 5.7 -12.5°
Maximum altitude 17:50:52 33° 277° (W) 875 3.8 -11.9°
Drops below altitude 10° 17:54:15 10° 212° (SSW) 1,727 5.5 -11.3°
Sets 17:56:30 0° 201° (SSW) 2,617 6.5 -10.9°
